START_TIME,STEP,MOV.,AL01,t_acc.,AL02,t_acc.,E37,t_acc.,H21,t_acc.
1989-08-27T06:00:34.880 ,3,0,0.,24.0,0.,24.0,0.,24.0,0.,24.0
1989-08-27T06:00:58.880 ,4,1,0.,24.0,0.,24.0,0.,24.0,0.,24.0
1989-08-27T06:01:22.880 ,4,0,0.,24.0,0.,24.0,0.,24.0,0.,24.0
1989-08-27T06:01:46.880 ,5,1,0.,24.0,0.,24.0,0.,24.0,0.,24.0
1989-08-27T06:02:10.880 ,5,0,0.,24.0,0.,24.0,0.,24.0,0.,24.0
1989-08-27T06:02:34.880 ,6,1,2.,24.0,0.,24.0,0.,24.0,0.,24.0
1989-08-27T06:02:58.880 ,6,0,0.,24.0,0.,24.0,0.,24.0,0.,24.0
1989-08-27T06:03:22.880 ,7,1,8.,24.0,0.,24.0,0.,24.0,0.,24.0
1989-08-27T06:03:46.880 ,7,0,38.,24.0,0.,24.0,0.,24.0,0.,24.0
1989-08-27T06:04:10.880 ,7,1,18.,24.0,0.,24.0,0.,24.0,0.,24.0
1989-08-27T06:04:34.880 ,7,0,24.,24.0,0.,24.0,0.,24.0,0.,24.0
1989-08-27T06:04:58.880 ,6,1,23.,24.0,0.,24.0,0.,24.0,0.,24.0
1989-08-27T06:05:22.880 ,6,0,0.,24.0,0.,24.0,0.,24.0,0.,24.0
1989-08-27T06:05:46.880 ,5,1,0.,24.0,0.,24.0,0.,24.0,0.,24.0
1989-08-27T06:06:10.880 ,5,0,0.,24.0,0.,24.0,0.,24.0,0.,24.0
1989-08-27T06:06:34.880 ,4,1,0.,24.0,0.,24.0,0.,24.0,0.,24.0
1989-08-27T06:06:58.880 ,4,0,0.,24.0,0.,24.0,0.,24.0,0.,24.0
1989-08-27T06:07:22.880 ,3,1,0.,24.0,0.,24.0,0.,24.0,0.,24.0
1989-08-27T06:07:46.880 ,3,0,0.,24.0,0.,24.0,0.,24.0,0.,24.0
1989-08-27T06:08:10.880 ,2,1,0.,24.0,0.,24.0,0.,24.0,0.,24.0
1989-08-27T06:08:34.880 ,2,0,0.,24.0,0.,24.0,0.,24.0,0.,24.0
1989-08-27T06:08:58.880 ,1,1,0.,24.0,0.,24.0,0.,24.0,0.,24.0
1989-08-27T06:09:22.880 ,1,0,0.,24.0,0.,24.0,0.,24.0,0.,24.0
1989-08-27T06:09:46.880 ,0,1,0.,24.0,0.,24.0,0.,24.0,0.,24.0
1989-08-27T06:10:10.880 ,0,0,0.,24.0,0.,24.0,0.,24.0,0.,24.0
1989-08-27T06:10:34.880 ,0,1,0.,24.0,0.,24.0,0.,24.0,0.,24.0
1989-08-27T06:10:58.880 ,0,0,0.,24.0,0.,24.0,0.,24.0,0.,24.0
1989-08-27T06:11:22.880 ,1,1,1.,24.0,0.,24.0,0.,24.0,0.,24.0
1989-08-27T06:11:46.880 ,1,0,0.,24.0,0.,24.0,0.,24.0,0.,24.0
1989-08-27T06:12:10.880 ,2,1,0.,24.0,0.,24.0,0.,24.0,0.,24.0
1989-08-27T06:12:34.880 ,2,0,0.,24.0,0.,24.0,0.,24.0,0.,24.0
1989-08-27T06:12:58.880 ,3,1,0.,24.0,0.,24.0,0.,24.0,0.,24.0
1989-08-27T06:13:22.880 ,3,0,0.,24.0,0.,24.0,0.,24.0,0.,24.0
1989-08-27T06:13:46.880 ,4,1,0.,24.0,0.,24.0,0.,24.0,0.,24.0
1989-08-27T06:14:10.880 ,4,0,0.,24.0,0.,24.0,0.,24.0,0.,24.0
1989-08-27T06:14:34.880 ,5,1,0.,24.0,0.,24.0,0.,24.0,0.,24.0
1989-08-27T06:14:58.880 ,5,0,0.,24.0,0.,24.0,0.,24.0,0.,24.0
1989-08-27T06:15:22.880 ,6,1,0.,24.0,0.,24.0,0.,24.0,0.,24.0
1989-08-27T06:15:46.880 ,6,0,0.,24.0,0.,24.0,0.,24.0,0.,24.0
1989-08-27T06:16:10.880 ,7,1,6.,24.0,0.,24.0,0.,24.0,0.,24.0
1989-08-27T06:16:34.880 ,7,0,33.,24.0,0.,24.0,0.,24.0,0.,24.0
1989-08-27T06:16:58.880 ,7,1,35.,24.0,0.,24.0,0.,24.0,0.,24.0
1989-08-27T06:17:22.880 ,7,0,19.,24.0,0.,24.0,0.,24.0,0.,24.0
1989-08-27T06:17:46.880 ,6,1,23.,24.0,0.,24.0,0.,24.0,0.,24.0
1989-08-27T06:18:10.880 ,6,0,0.,24.0,1.,24.0,0.,24.0,0.,24.0
1989-08-27T06:18:34.880 ,5,1,0.,24.0,0.,24.0,0.,24.0,0.,24.0
1989-08-27T06:18:58.880 ,5,0,0.,24.0,0.,24.0,0.,24.0,0.,24.0
1989-08-27T06:19:22.880 ,4,1,0.,24.0,0.,24.0,0.,24.0,0.,24.0
1989-08-27T06:19:46.880 ,4,0,0.,24.0,0.,24.0,0.,24.0,0.,24.0
1989-08-27T06:20:10.880 ,3,1,0.,24.0,0.,24.0,0.,24.0,0.,24.0
1989-08-27T06:20:34.880 ,3,0,0.,24.0,0.,24.0,0.,24.0,0.,24.0
1989-08-27T06:20:58.880 ,2,1,0.,24.0,0.,24.0,0.,24.0,0.,24.0
1989-08-27T06:21:22.880 ,2,0,1.,24.0,0.,24.0,0.,24.0,0.,24.0
1989-08-27T06:21:46.880 ,1,1,0.,24.0,0.,24.0,0.,24.0,0.,24.0
1989-08-27T06:22:10.880 ,1,0,0.,24.0,0.,24.0,0.,24.0,0.,24.0
1989-08-27T06:22:34.880 ,0,1,0.,24.0,0.,24.0,0.,24.0,0.,24.0
1989-08-27T06:22:58.880 ,0,0,0.,24.0,0.,24.0,0.,24.0,0.,24.0
1989-08-27T06:23:22.880 ,0,1,0.,24.0,0.,24.0,0.,24.0,0.,24.0
1989-08-27T06:23:46.880 ,0,0,0.,24.0,0.,24.0,0.,24.0,0.,24.0
1989-08-27T06:24:10.880 ,1,1,0.,24.0,1.,24.0,0.,24.0,0.,24.0
1989-08-27T06:24:34.880 ,1,0,0.,24.0,0.,24.0,0.,24.0,0.,24.0
1989-08-27T06:24:58.880 ,2,1,0.,24.0,0.,24.0,0.,24.0,0.,24.0
1989-08-27T06:25:22.880 ,2,0,0.,24.0,0.,24.0,0.,24.0,0.,24.0
1989-08-27T06:25:46.880 ,3,1,0.,24.0,0.,24.0,0.,24.0,0.,24.0
1989-08-27T06:26:10.880 ,3,0,0.,24.0,0.,24.0,0.,24.0,0.,24.0
1989-08-27T06:26:34.880 ,4,1,0.,24.0,0.,24.0,0.,24.0,0.,24.0
1989-08-27T06:26:58.880 ,4,0,0.,24.0,0.,24.0,0.,24.0,0.,24.0
1989-08-27T06:27:22.880 ,5,1,0.,24.0,0.,24.0,0.,24.0,0.,24.0
1989-08-27T06:27:46.880 ,5,0,0.,24.0,0.,24.0,0.,24.0,0.,24.0
1989-08-27T06:28:10.880 ,6,1,1.,24.0,0.,24.0,0.,24.0,0.,24.0
1989-08-27T06:28:34.880 ,6,0,0.,24.0,0.,24.0,0.,24.0,0.,24.0
1989-08-27T06:28:58.880 ,7,1,9.,24.0,0.,24.0,0.,24.0,0.,24.0
1989-08-27T06:29:22.880 ,7,0,32.,24.0,0.,24.0,0.,24.0,0.,24.0
1989-08-27T06:29:46.880 ,7,1,27.,24.0,0.,24.0,0.,24.0,0.,24.0
1989-08-27T06:30:10.880 ,7,0,28.,24.0,0.,24.0,0.,24.0,0.,24.0
1989-08-27T06:30:34.880 ,6,1,17.,24.0,0.,24.0,0.,24.0,0.,24.0
1989-08-27T06:30:58.880 ,6,0,0.,24.0,0.,24.0,0.,24.0,0.,24.0
1989-08-27T06:31:22.880 ,5,1,0.,24.0,0.,24.0,0.,24.0,0.,24.0
1989-08-27T06:31:46.880 ,5,0,0.,24.0,0.,24.0,0.,24.0,0.,24.0
1989-08-27T06:32:10.880 ,4,1,0.,24.0,0.,24.0,0.,24.0,0.,24.0
1989-08-27T06:32:34.880 ,4,0,0.,24.0,0.,24.0,0.,24.0,0.,24.0
1989-08-27T06:32:58.880 ,3,1,0.,24.0,0.,24.0,0.,24.0,0.,24.0
1989-08-27T06:33:22.880 ,3,0,0.,24.0,0.,24.0,0.,24.0,0.,24.0
1989-08-27T06:33:46.880 ,2,1,0.,24.0,0.,24.0,0.,24.0,0.,24.0
1989-08-27T06:34:10.880 ,2,0,0.,24.0,0.,24.0,0.,24.0,0.,24.0
1989-08-27T06:34:34.880 ,1,1,0.,24.0,0.,24.0,0.,24.0,0.,24.0
1989-08-27T06:34:58.880 ,1,0,0.,24.0,0.,24.0,0.,24.0,0.,24.0
1989-08-27T06:35:22.880 ,0,1,0.,24.0,0.,24.0,0.,24.0,0.,24.0
1989-08-27T06:35:46.880 ,0,0,0.,24.0,0.,24.0,0.,24.0,0.,24.0
1989-08-27T06:36:10.880 ,0,1,0.,24.0,0.,24.0,0.,24.0,0.,24.0
1989-08-27T06:36:34.880 ,0,0,0.,24.0,0.,24.0,0.,24.0,0.,24.0
1989-08-27T06:36:58.880 ,1,1,0.,24.0,0.,24.0,0.,24.0,0.,24.0
1989-08-27T06:37:22.880 ,1,0,0.,24.0,0.,24.0,0.,24.0,0.,24.0
1989-08-27T06:37:46.880 ,2,1,0.,24.0,0.,24.0,0.,24.0,0.,24.0
1989-08-27T06:38:10.880 ,2,0,0.,24.0,1.,24.0,0.,24.0,0.,24.0
1989-08-27T06:38:34.880 ,3,1,0.,24.0,0.,24.0,0.,24.0,0.,24.0
1989-08-27T06:38:58.880 ,3,0,1.,24.0,1.,24.0,0.,24.0,0.,24.0
1989-08-27T06:39:22.880 ,4,1,0.,24.0,0.,24.0,0.,24.0,0.,24.0
1989-08-27T06:39:46.880 ,4,0,0.,24.0,0.,24.0,0.,24.0,0.,24.0
1989-08-27T06:40:10.880 ,5,1,0.,24.0,0.,24.0,0.,24.0,0.,24.0
1989-08-27T06:40:34.880 ,5,0,0.,24.0,0.,24.0,0.,24.0,0.,24.0
1989-08-27T06:40:58.880 ,6,1,0.,24.0,0.,24.0,0.,24.0,0.,24.0
1989-08-27T06:41:22.880 ,6,0,0.,24.0,0.,24.0,0.,24.0,0.,24.0
1989-08-27T06:41:46.880 ,7,1,3.,24.0,0.,24.0,0.,24.0,0.,24.0
1989-08-27T06:42:10.880 ,7,0,33.,24.0,0.,24.0,0.,24.0,0.,24.0
1989-08-27T06:42:34.880 ,7,1,30.,24.0,0.,24.0,0.,24.0,0.,24.0
1989-08-27T06:42:58.880 ,7,0,37.,24.0,0.,24.0,0.,24.0,0.,24.0
1989-08-27T06:43:22.880 ,6,1,32.,24.0,0.,24.0,0.,24.0,0.,24.0
1989-08-27T06:43:46.880 ,6,0,0.,24.0,1.,24.0,0.,24.0,0.,24.0
1989-08-27T06:44:10.880 ,5,1,0.,24.0,0.,24.0,0.,24.0,0.,24.0
1989-08-27T06:44:34.880 ,5,0,0.,24.0,0.,24.0,0.,24.0,0.,24.0
1989-08-27T06:44:58.880 ,4,1,0.,24.0,0.,24.0,0.,24.0,0.,24.0
1989-08-27T06:45:22.880 ,4,0,0.,24.0,0.,24.0,0.,24.0,0.,24.0
1989-08-27T06:45:46.880 ,3,1,1.,24.0,0.,24.0,0.,24.0,0.,24.0
1989-08-27T06:46:10.880 ,3,0,0.,24.0,0.,24.0,0.,24.0,0.,24.0
1989-08-27T06:46:34.880 ,2,1,0.,24.0,0.,24.0,0.,24.0,0.,24.0
1989-08-27T06:46:58.880 ,2,0,0.,24.0,0.,24.0,0.,24.0,0.,24.0
1989-08-27T06:47:22.880 ,1,1,0.,24.0,0.,24.0,0.,24.0,0.,24.0
1989-08-27T06:47:46.880 ,1,0,0.,24.0,0.,24.0,0.,24.0,0.,24.0
1989-08-27T06:48:10.880 ,0,1,0.,24.0,0.,24.0,0.,24.0,0.,24.0
1989-08-27T06:48:34.880 ,0,0,0.,24.0,0.,24.0,0.,24.0,0.,24.0
1989-08-27T06:48:58.880 ,0,1,0.,24.0,0.,24.0,0.,24.0,0.,24.0
1989-08-27T06:49:22.880 ,0,0,0.,24.0,0.,24.0,0.,24.0,0.,24.0
1989-08-27T06:49:46.880 ,1,1,0.,24.0,0.,24.0,0.,24.0,0.,24.0
1989-08-27T06:50:10.880 ,1,0,0.,24.0,0.,24.0,0.,24.0,0.,24.0
1989-08-27T06:50:34.880 ,2,1,0.,24.0,0.,24.0,0.,24.0,0.,24.0
1989-08-27T06:50:58.880 ,2,0,0.,24.0,0.,24.0,0.,24.0,0.,24.0
1989-08-27T06:51:22.880 ,3,1,0.,24.0,0.,24.0,0.,24.0,0.,24.0
1989-08-27T06:51:46.880 ,3,0,0.,24.0,0.,24.0,0.,24.0,0.,24.0
1989-08-27T06:52:10.870 ,4,1,0.,24.0,0.,24.0,0.,24.0,0.,24.0
1989-08-27T06:52:34.870 ,4,0,0.,24.0,0.,24.0,0.,24.0,0.,24.0
1989-08-27T06:52:58.870 ,5,1,0.,24.0,0.,24.0,0.,24.0,0.,24.0
1989-08-27T06:53:22.870 ,5,0,0.,24.0,0.,24.0,0.,24.0,0.,24.0
1989-08-27T06:53:46.870 ,6,1,1.,24.0,0.,24.0,0.,24.0,0.,24.0
1989-08-27T06:54:10.870 ,6,0,0.,24.0,0.,24.0,0.,24.0,0.,24.0
1989-08-27T06:54:34.870 ,7,1,7.,24.0,0.,24.0,0.,24.0,0.,24.0
1989-08-27T06:54:58.870 ,7,0,20.,24.0,0.,24.0,0.,24.0,0.,24.0
1989-08-27T06:55:22.870 ,7,1,43.,24.0,0.,24.0,0.,24.0,0.,24.0
1989-08-27T06:55:46.870 ,7,0,24.,24.0,0.,24.0,0.,24.0,0.,24.0
1989-08-27T06:56:10.870 ,6,1,29.,24.0,0.,24.0,0.,24.0,0.,24.0
1989-08-27T06:56:34.870 ,6,0,0.,24.0,0.,24.0,0.,24.0,0.,24.0
1989-08-27T06:56:58.870 ,5,1,0.,24.0,0.,24.0,0.,24.0,0.,24.0
1989-08-27T06:57:22.870 ,5,0,0.,24.0,0.,24.0,0.,24.0,0.,24.0
1989-08-27T06:57:46.870 ,4,1,0.,24.0,0.,24.0,0.,24.0,0.,24.0
1989-08-27T06:58:10.870 ,4,0,0.,24.0,0.,24.0,0.,24.0,0.,24.0
1989-08-27T06:58:34.870 ,3,1,0.,24.0,0.,24.0,0.,24.0,0.,24.0
1989-08-27T06:58:58.870 ,3,0,0.,24.0,0.,24.0,0.,24.0,0.,24.0
1989-08-27T06:59:22.870 ,2,1,0.,24.0,0.,24.0,0.,24.0,0.,24.0
1989-08-27T06:59:46.870 ,2,0,0.,24.0,0.,24.0,0.,24.0,0.,24.0
1989-08-27T07:00:10.870 ,1,1,0.,24.0,0.,24.0,0.,24.0,0.,24.0
1989-08-27T07:00:34.870 ,1,0,0.,24.0,0.,24.0,0.,24.0,0.,24.0
1989-08-27T07:00:58.870 ,0,1,0.,24.0,0.,24.0,0.,24.0,0.,24.0
1989-08-27T07:01:22.870 ,0,0,0.,24.0,0.,24.0,0.,24.0,0.,24.0
1989-08-27T07:01:46.870 ,0,1,0.,24.0,0.,24.0,0.,24.0,0.,24.0
1989-08-27T07:02:10.870 ,0,0,0.,24.0,0.,24.0,0.,24.0,0.,24.0
1989-08-27T07:02:34.870 ,1,1,0.,24.0,0.,24.0,0.,24.0,0.,24.0
1989-08-27T07:02:58.870 ,1,0,0.,24.0,0.,24.0,0.,24.0,0.,24.0
1989-08-27T07:03:22.870 ,2,1,0.,24.0,0.,24.0,0.,24.0,0.,24.0
1989-08-27T07:03:46.870 ,2,0,0.,24.0,0.,24.0,0.,24.0,0.,24.0
1989-08-27T07:04:10.870 ,3,1,0.,24.0,0.,24.0,0.,24.0,0.,24.0
1989-08-27T07:04:34.870 ,3,0,0.,24.0,0.,24.0,0.,24.0,0.,24.0
1989-08-27T07:04:58.870 ,4,1,0.,24.0,0.,24.0,0.,24.0,0.,24.0
1989-08-27T07:05:22.870 ,4,0,0.,24.0,0.,24.0,0.,24.0,0.,24.0
1989-08-27T07:05:46.870 ,5,1,0.,24.0,0.,24.0,0.,24.0,0.,24.0
1989-08-27T07:06:10.870 ,5,0,0.,24.0,0.,24.0,0.,24.0,0.,24.0
1989-08-27T07:06:34.870 ,6,1,0.,24.0,0.,24.0,0.,24.0,0.,24.0
1989-08-27T07:06:58.870 ,6,0,0.,24.0,0.,24.0,0.,24.0,0.,24.0
1989-08-27T07:07:22.870 ,7,1,7.,24.0,0.,24.0,0.,24.0,0.,24.0
1989-08-27T07:07:46.870 ,7,0,29.,24.0,0.,24.0,0.,24.0,0.,24.0
1989-08-27T07:08:10.870 ,7,1,29.,24.0,0.,24.0,0.,24.0,0.,24.0
1989-08-27T07:08:34.870 ,7,0,33.,24.0,0.,24.0,0.,24.0,0.,24.0
1989-08-27T07:08:58.870 ,6,1,23.,24.0,0.,24.0,0.,24.0,0.,24.0
1989-08-27T07:09:22.870 ,6,0,1.,24.0,0.,24.0,0.,24.0,0.,24.0
1989-08-27T07:09:46.870 ,5,1,0.,24.0,0.,24.0,0.,24.0,0.,24.0
1989-08-27T07:10:10.870 ,5,0,0.,24.0,0.,24.0,0.,24.0,0.,24.0
1989-08-27T07:10:34.870 ,4,1,0.,24.0,0.,24.0,0.,24.0,0.,24.0
1989-08-27T07:10:58.870 ,4,0,0.,24.0,0.,24.0,0.,24.0,0.,24.0
1989-08-27T07:11:22.870 ,3,1,0.,24.0,0.,24.0,0.,24.0,0.,24.0
1989-08-27T07:11:46.870 ,3,0,0.,24.0,0.,24.0,0.,24.0,0.,24.0
1989-08-27T07:12:10.870 ,2,1,0.,24.0,0.,24.0,0.,24.0,0.,24.0
1989-08-27T07:12:34.870 ,2,0,0.,24.0,0.,24.0,0.,24.0,0.,24.0
1989-08-27T07:12:58.870 ,1,1,0.,24.0,0.,24.0,0.,24.0,0.,24.0
1989-08-27T07:13:22.870 ,1,0,0.,24.0,0.,24.0,0.,24.0,0.,24.0
1989-08-27T07:13:46.870 ,0,1,1.,24.0,0.,24.0,0.,24.0,0.,24.0
1989-08-27T07:14:10.870 ,0,0,0.,24.0,0.,24.0,0.,24.0,0.,24.0
1989-08-27T07:14:34.870 ,0,1,0.,24.0,0.,24.0,0.,24.0,0.,24.0
1989-08-27T07:14:58.870 ,0,0,0.,24.0,0.,24.0,0.,24.0,0.,24.0
1989-08-27T07:15:22.870 ,1,1,0.,24.0,0.,24.0,0.,24.0,0.,24.0
1989-08-27T07:15:46.870 ,1,0,1.,24.0,0.,24.0,0.,24.0,0.,24.0
1989-08-27T07:16:10.870 ,2,1,0.,24.0,0.,24.0,0.,24.0,0.,24.0
1989-08-27T07:16:34.870 ,2,0,0.,24.0,0.,24.0,0.,24.0,0.,24.0
1989-08-27T07:16:58.870 ,3,1,0.,24.0,0.,24.0,0.,24.0,0.,24.0
1989-08-27T07:17:22.870 ,3,0,0.,24.0,0.,24.0,0.,24.0,0.,24.0
1989-08-27T07:17:46.870 ,4,1,0.,24.0,0.,24.0,0.,24.0,0.,24.0
1989-08-27T07:18:10.870 ,4,0,0.,24.0,0.,24.0,0.,24.0,0.,24.0
1989-08-27T07:18:34.870 ,5,1,0.,24.0,0.,24.0,0.,24.0,0.,24.0
1989-08-27T07:18:58.870 ,5,0,0.,24.0,0.,24.0,0.,24.0,0.,24.0
1989-08-27T07:19:22.870 ,6,1,0.,24.0,0.,24.0,0.,24.0,0.,24.0
1989-08-27T07:19:46.870 ,6,0,0.,24.0,0.,24.0,0.,24.0,0.,24.0
1989-08-27T07:20:10.870 ,7,1,4.,24.0,0.,24.0,0.,24.0,0.,24.0
1989-08-27T07:20:34.870 ,7,0,25.,24.0,0.,24.0,0.,24.0,0.,24.0
1989-08-27T07:20:58.870 ,7,1,28.,24.0,0.,24.0,0.,24.0,0.,24.0
1989-08-27T07:21:22.870 ,7,0,30.,24.0,0.,24.0,0.,24.0,0.,24.0
1989-08-27T07:21:46.870 ,6,1,20.,24.0,0.,24.0,0.,24.0,0.,24.0
1989-08-27T07:22:10.870 ,6,0,0.,24.0,0.,24.0,0.,24.0,0.,24.0
1989-08-27T07:22:34.870 ,5,1,0.,24.0,0.,24.0,0.,24.0,0.,24.0
1989-08-27T07:22:58.870 ,5,0,0.,24.0,0.,24.0,0.,24.0,0.,24.0
1989-08-27T07:23:22.870 ,4,1,0.,24.0,0.,24.0,0.,24.0,0.,24.0
1989-08-27T07:23:46.870 ,4,0,0.,24.0,0.,24.0,0.,24.0,0.,24.0
1989-08-27T07:24:10.870 ,3,1,0.,24.0,0.,24.0,0.,24.0,0.,24.0
1989-08-27T07:24:34.870 ,3,0,0.,24.0,0.,24.0,0.,24.0,0.,24.0
1989-08-27T07:24:58.870 ,2,1,0.,24.0,0.,24.0,0.,24.0,0.,24.0
1989-08-27T07:25:22.870 ,2,0,0.,24.0,0.,24.0,0.,24.0,0.,24.0
1989-08-27T07:25:46.870 ,1,1,1.,24.0,0.,24.0,0.,24.0,0.,24.0
1989-08-27T07:26:10.870 ,1,0,0.,24.0,0.,24.0,0.,24.0,0.,24.0
1989-08-27T07:26:34.870 ,0,1,0.,24.0,0.,24.0,0.,24.0,0.,24.0
1989-08-27T07:26:58.870 ,0,0,0.,24.0,0.,24.0,0.,24.0,0.,24.0
1989-08-27T07:27:22.870 ,0,1,0.,24.0,0.,24.0,0.,24.0,0.,24.0
1989-08-27T07:27:46.870 ,0,0,0.,24.0,0.,24.0,0.,24.0,0.,24.0
1989-08-27T07:28:10.870 ,1,1,0.,24.0,0.,24.0,0.,24.0,0.,24.0
1989-08-27T07:28:34.870 ,1,0,0.,24.0,0.,24.0,0.,24.0,0.,24.0
1989-08-27T07:28:58.870 ,2,1,1.,24.0,0.,24.0,0.,24.0,0.,24.0
1989-08-27T07:29:22.870 ,2,0,0.,24.0,0.,24.0,0.,24.0,0.,24.0
1989-08-27T07:29:46.870 ,3,1,0.,24.0,0.,24.0,0.,24.0,0.,24.0
1989-08-27T07:30:10.870 ,3,0,1.,24.0,0.,24.0,0.,24.0,0.,24.0
1989-08-27T07:30:34.870 ,4,1,0.,24.0,0.,24.0,0.,24.0,0.,24.0
1989-08-27T07:30:58.870 ,4,0,0.,24.0,0.,24.0,0.,24.0,0.,24.0
1989-08-27T07:31:22.870 ,5,1,0.,24.0,0.,24.0,0.,24.0,0.,24.0
1989-08-27T07:31:46.870 ,5,0,0.,24.0,0.,24.0,0.,24.0,0.,24.0
1989-08-27T07:32:10.870 ,6,1,0.,24.0,0.,24.0,0.,24.0,0.,24.0
1989-08-27T07:32:34.870 ,6,0,1.,24.0,0.,24.0,0.,24.0,0.,24.0
1989-08-27T07:32:58.870 ,7,1,11.,24.0,0.,24.0,0.,24.0,0.,24.0
1989-08-27T07:33:22.870 ,7,0,20.,24.0,0.,24.0,0.,24.0,0.,24.0
1989-08-27T07:33:46.870 ,7,1,40.,24.0,0.,24.0,0.,24.0,0.,24.0
1989-08-27T07:34:10.870 ,7,0,18.,24.0,0.,24.0,0.,24.0,0.,24.0
1989-08-27T07:34:34.870 ,6,1,27.,24.0,0.,24.0,0.,24.0,0.,24.0
1989-08-27T07:34:58.870 ,6,0,0.,24.0,0.,24.0,0.,24.0,0.,24.0
1989-08-27T07:35:22.870 ,5,1,0.,24.0,0.,24.0,0.,24.0,0.,24.0
1989-08-27T07:35:46.870 ,5,0,0.,24.0,0.,24.0,0.,24.0,0.,24.0
1989-08-27T07:36:10.870 ,4,1,0.,24.0,0.,24.0,0.,24.0,0.,24.0
1989-08-27T07:36:34.870 ,4,0,0.,24.0,1.,24.0,0.,24.0,0.,24.0
1989-08-27T07:36:58.870 ,3,1,0.,24.0,0.,24.0,0.,24.0,0.,24.0
1989-08-27T07:37:22.870 ,3,0,0.,24.0,0.,24.0,0.,24.0,0.,24.0
1989-08-27T07:37:46.870 ,2,1,0.,24.0,0.,24.0,0.,24.0,0.,24.0
1989-08-27T07:38:10.870 ,2,0,0.,24.0,0.,24.0,0.,24.0,0.,24.0
1989-08-27T07:38:34.870 ,1,1,0.,24.0,0.,24.0,0.,24.0,0.,24.0
1989-08-27T07:38:58.870 ,1,0,0.,24.0,0.,24.0,0.,24.0,0.,24.0
1989-08-27T07:39:22.870 ,0,1,0.,24.0,0.,24.0,0.,24.0,0.,24.0
1989-08-27T07:39:46.870 ,0,0,0.,24.0,0.,24.0,0.,24.0,0.,24.0
1989-08-27T07:40:10.870 ,0,1,0.,24.0,0.,24.0,0.,24.0,0.,24.0
1989-08-27T07:40:34.870 ,0,0,1.,24.0,0.,24.0,0.,24.0,0.,24.0
1989-08-27T07:40:58.870 ,1,1,0.,24.0,0.,24.0,0.,24.0,0.,24.0
1989-08-27T07:41:22.870 ,1,0,0.,24.0,0.,24.0,0.,24.0,0.,24.0
1989-08-27T07:41:46.870 ,2,1,0.,24.0,0.,24.0,0.,24.0,0.,24.0
1989-08-27T07:42:10.870 ,2,0,0.,24.0,0.,24.0,0.,24.0,0.,24.0
1989-08-27T07:42:34.870 ,3,1,0.,24.0,0.,24.0,0.,24.0,0.,24.0
1989-08-27T07:42:58.870 ,3,0,1.,24.0,0.,24.0,0.,24.0,0.,24.0
1989-08-27T07:43:22.870 ,4,1,0.,24.0,0.,24.0,0.,24.0,0.,24.0
1989-08-27T07:43:46.870 ,4,0,0.,24.0,0.,24.0,0.,24.0,0.,24.0
1989-08-27T07:44:10.870 ,5,1,0.,24.0,0.,24.0,0.,24.0,0.,24.0
1989-08-27T07:44:34.870 ,5,0,0.,24.0,0.,24.0,0.,24.0,0.,24.0
1989-08-27T07:44:58.870 ,6,1,0.,24.0,0.,24.0,0.,24.0,0.,24.0
1989-08-27T07:45:22.870 ,6,0,0.,24.0,0.,24.0,0.,24.0,0.,24.0
1989-08-27T07:45:46.870 ,7,1,4.,24.0,0.,24.0,0.,24.0,0.,24.0
1989-08-27T07:46:10.870 ,7,0,31.,24.0,0.,24.0,0.,24.0,0.,24.0
1989-08-27T07:46:34.870 ,7,1,31.,24.0,0.,24.0,0.,24.0,0.,24.0
1989-08-27T07:46:58.870 ,7,0,26.,24.0,0.,24.0,0.,24.0,0.,24.0
1989-08-27T07:47:22.870 ,6,1,27.,24.0,0.,24.0,0.,24.0,0.,24.0
1989-08-27T07:47:46.870 ,6,0,0.,24.0,0.,24.0,0.,24.0,0.,24.0
1989-08-27T07:48:10.870 ,5,1,0.,24.0,0.,24.0,0.,24.0,0.,24.0
1989-08-27T07:48:34.870 ,5,0,0.,24.0,0.,24.0,0.,24.0,0.,24.0
1989-08-27T07:48:58.870 ,4,1,0.,24.0,0.,24.0,0.,24.0,0.,24.0
1989-08-27T07:49:22.870 ,4,0,0.,24.0,1.,24.0,0.,24.0,0.,24.0
1989-08-27T07:49:46.870 ,3,1,0.,24.0,0.,24.0,0.,24.0,0.,24.0
1989-08-27T07:50:10.870 ,3,0,0.,24.0,0.,24.0,0.,24.0,0.,24.0
1989-08-27T07:50:34.870 ,2,1,0.,24.0,0.,24.0,0.,24.0,0.,24.0
1989-08-27T07:50:58.870 ,2,0,0.,24.0,0.,24.0,0.,24.0,0.,24.0
1989-08-27T07:51:22.870 ,1,1,0.,24.0,0.,24.0,0.,24.0,0.,24.0
1989-08-27T07:51:46.870 ,1,0,0.,24.0,0.,24.0,0.,24.0,0.,24.0
1989-08-27T07:52:10.870 ,0,1,0.,24.0,0.,24.0,0.,24.0,0.,24.0
1989-08-27T07:52:34.870 ,0,0,0.,24.0,0.,24.0,0.,24.0,0.,24.0
1989-08-27T07:52:58.870 ,0,1,0.,24.0,0.,24.0,0.,24.0,0.,24.0
1989-08-27T07:53:22.870 ,0,0,0.,24.0,0.,24.0,0.,24.0,0.,24.0
1989-08-27T07:53:46.870 ,1,1,0.,24.0,0.,24.0,0.,24.0,0.,24.0
1989-08-27T07:54:10.870 ,1,0,0.,24.0,0.,24.0,0.,24.0,0.,24.0
1989-08-27T07:54:34.870 ,2,1,0.,24.0,0.,24.0,0.,24.0,0.,24.0
1989-08-27T07:54:58.870 ,2,0,0.,24.0,0.,24.0,0.,24.0,0.,24.0
1989-08-27T07:55:22.870 ,3,1,0.,24.0,0.,24.0,0.,24.0,0.,24.0
1989-08-27T07:55:46.870 ,3,0,0.,24.0,0.,24.0,0.,24.0,0.,24.0
1989-08-27T07:56:10.870 ,4,1,1.,24.0,0.,24.0,0.,24.0,0.,24.0
1989-08-27T07:56:34.870 ,4,0,0.,24.0,0.,24.0,0.,24.0,0.,24.0
1989-08-27T07:56:58.870 ,5,1,0.,24.0,0.,24.0,0.,24.0,0.,24.0
1989-08-27T07:57:22.870 ,5,0,0.,24.0,0.,24.0,0.,24.0,0.,24.0
1989-08-27T07:57:46.870 ,6,1,0.,24.0,0.,24.0,0.,24.0,0.,24.0
1989-08-27T07:58:10.870 ,6,0,0.,24.0,0.,24.0,0.,24.0,0.,24.0
1989-08-27T07:58:34.870 ,7,1,7.,24.0,0.,24.0,0.,24.0,0.,24.0
1989-08-27T07:58:58.870 ,7,0,21.,24.0,0.,24.0,0.,24.0,0.,24.0
1989-08-27T07:59:22.870 ,7,1,25.,24.0,0.,24.0,0.,24.0,0.,24.0
1989-08-27T07:59:46.870 ,7,0,29.,24.0,0.,24.0,0.,24.0,0.,24.0
1989-08-27T08:00:10.870 ,6,1,25.,24.0,0.,24.0,0.,24.0,0.,24.0
1989-08-27T08:00:34.870 ,6,0,1.,24.0,0.,24.0,0.,24.0,0.,24.0
1989-08-27T08:00:58.870 ,5,1,0.,24.0,0.,24.0,0.,24.0,0.,24.0
1989-08-27T08:01:22.870 ,5,0,0.,24.0,0.,24.0,0.,24.0,0.,24.0
1989-08-27T08:01:46.870 ,4,1,0.,24.0,0.,24.0,0.,24.0,0.,24.0
1989-08-27T08:02:10.870 ,4,0,0.,24.0,0.,24.0,0.,24.0,0.,24.0
1989-08-27T08:02:34.870 ,3,1,0.,24.0,0.,24.0,0.,24.0,0.,24.0
1989-08-27T08:02:58.870 ,3,0,0.,24.0,0.,24.0,0.,24.0,0.,24.0
1989-08-27T08:03:22.870 ,2,1,0.,24.0,0.,24.0,0.,24.0,0.,24.0
1989-08-27T08:03:46.870 ,2,0,0.,24.0,0.,24.0,0.,24.0,0.,24.0
1989-08-27T08:04:10.870 ,1,1,0.,24.0,0.,24.0,0.,24.0,0.,24.0
1989-08-27T08:04:34.870 ,1,0,0.,24.0,0.,24.0,0.,24.0,0.,24.0
1989-08-27T08:04:58.870 ,0,1,0.,24.0,0.,24.0,0.,24.0,0.,24.0
1989-08-27T08:05:22.870 ,0,0,0.,24.0,0.,24.0,0.,24.0,0.,24.0
1989-08-27T08:05:46.870 ,0,1,0.,24.0,0.,24.0,0.,24.0,0.,24.0
1989-08-27T08:06:10.870 ,0,0,0.,24.0,0.,24.0,0.,24.0,0.,24.0
1989-08-27T08:06:34.870 ,1,1,0.,24.0,0.,24.0,0.,24.0,0.,24.0
1989-08-27T08:06:58.870 ,1,0,0.,24.0,0.,24.0,0.,24.0,0.,24.0
1989-08-27T08:07:22.870 ,2,1,0.,24.0,0.,24.0,0.,24.0,0.,24.0
1989-08-27T08:07:46.870 ,2,0,0.,24.0,0.,24.0,0.,24.0,0.,24.0
1989-08-27T08:08:10.870 ,3,1,0.,24.0,0.,24.0,0.,24.0,0.,24.0
1989-08-27T08:08:34.870 ,3,0,0.,24.0,0.,24.0,0.,24.0,0.,24.0
1989-08-27T08:08:58.870 ,4,1,0.,24.0,0.,24.0,0.,24.0,0.,24.0
1989-08-27T08:09:22.870 ,4,0,0.,24.0,0.,24.0,0.,24.0,0.,24.0
1989-08-27T08:09:46.870 ,5,1,1.,24.0,0.,24.0,0.,24.0,0.,24.0
1989-08-27T08:10:10.870 ,5,0,0.,24.0,0.,24.0,0.,24.0,0.,24.0
1989-08-27T08:10:34.870 ,6,1,0.,24.0,1.,24.0,0.,24.0,0.,24.0
1989-08-27T08:10:58.870 ,6,0,0.,24.0,0.,24.0,0.,24.0,0.,24.0
1989-08-27T08:11:22.870 ,7,1,12.,24.0,0.,24.0,0.,24.0,0.,24.0
1989-08-27T08:11:46.870 ,7,0,40.,24.0,0.,24.0,0.,24.0,0.,24.0
1989-08-27T08:12:10.870 ,7,1,34.,24.0,0.,24.0,0.,24.0,0.,24.0
1989-08-27T08:12:34.870 ,7,0,32.,24.0,0.,24.0,0.,24.0,0.,24.0
1989-08-27T08:12:58.870 ,6,1,22.,24.0,0.,24.0,0.,24.0,0.,24.0
1989-08-27T08:13:22.870 ,6,0,0.,24.0,0.,24.0,0.,24.0,0.,24.0
1989-08-27T08:13:46.870 ,5,1,0.,24.0,0.,24.0,0.,24.0,0.,24.0
1989-08-27T08:14:10.870 ,5,0,0.,24.0,0.,24.0,0.,24.0,0.,24.0
1989-08-27T08:14:34.870 ,4,1,0.,24.0,0.,24.0,0.,24.0,0.,24.0
1989-08-27T08:14:58.870 ,4,0,0.,24.0,0.,24.0,0.,24.0,0.,24.0
1989-08-27T08:15:22.870 ,3,1,0.,24.0,0.,24.0,0.,24.0,0.,24.0
1989-08-27T08:15:46.870 ,3,0,0.,24.0,0.,24.0,0.,24.0,0.,24.0
1989-08-27T08:16:10.870 ,2,1,0.,24.0,0.,24.0,0.,24.0,0.,24.0
1989-08-27T08:16:34.870 ,2,0,0.,24.0,0.,24.0,0.,24.0,0.,24.0
1989-08-27T08:16:58.870 ,1,1,0.,24.0,0.,24.0,0.,24.0,0.,24.0
1989-08-27T08:17:22.870 ,1,0,0.,24.0,0.,24.0,0.,24.0,0.,24.0
1989-08-27T08:17:46.870 ,0,1,0.,24.0,0.,24.0,0.,24.0,0.,24.0
1989-08-27T08:18:10.870 ,0,0,0.,24.0,0.,24.0,0.,24.0,0.,24.0
1989-08-27T08:18:34.870 ,0,1,0.,24.0,0.,24.0,0.,24.0,0.,24.0
1989-08-27T08:18:58.870 ,0,0,0.,24.0,0.,24.0,0.,24.0,0.,24.0
1989-08-27T08:19:22.870 ,1,1,0.,24.0,0.,24.0,0.,24.0,0.,24.0
1989-08-27T08:19:46.870 ,1,0,0.,24.0,0.,24.0,0.,24.0,0.,24.0
1989-08-27T08:20:10.870 ,2,1,0.,24.0,0.,24.0,0.,24.0,0.,24.0
1989-08-27T08:20:34.870 ,2,0,1.,24.0,0.,24.0,0.,24.0,0.,24.0
1989-08-27T08:20:58.870 ,3,1,0.,24.0,0.,24.0,0.,24.0,0.,24.0
1989-08-27T08:21:22.870 ,3,0,0.,24.0,0.,24.0,0.,24.0,0.,24.0
1989-08-27T08:21:46.870 ,4,1,0.,24.0,0.,24.0,0.,24.0,0.,24.0
1989-08-27T08:22:10.870 ,4,0,0.,24.0,0.,24.0,0.,24.0,0.,24.0
1989-08-27T08:22:34.870 ,5,1,0.,24.0,0.,24.0,0.,24.0,0.,24.0
1989-08-27T08:22:58.870 ,5,0,0.,24.0,0.,24.0,0.,24.0,0.,24.0
1989-08-27T08:23:22.870 ,6,1,0.,24.0,0.,24.0,0.,24.0,0.,24.0
1989-08-27T08:23:46.870 ,6,0,0.,24.0,0.,24.0,0.,24.0,0.,24.0
1989-08-27T08:24:10.870 ,7,1,3.,24.0,0.,24.0,0.,24.0,0.,24.0
1989-08-27T08:24:34.870 ,7,0,35.,24.0,0.,24.0,0.,24.0,0.,24.0
1989-08-27T08:24:58.870 ,7,1,18.,24.0,1.,24.0,0.,24.0,0.,24.0
1989-08-27T08:25:22.870 ,7,0,26.,24.0,0.,24.0,0.,24.0,0.,24.0
1989-08-27T08:25:46.870 ,6,1,20.,24.0,0.,24.0,0.,24.0,0.,24.0
1989-08-27T08:26:10.870 ,6,0,0.,24.0,0.,24.0,0.,24.0,0.,24.0
1989-08-27T08:26:34.870 ,5,1,0.,24.0,0.,24.0,0.,24.0,0.,24.0
1989-08-27T08:26:58.870 ,5,0,0.,24.0,0.,24.0,0.,24.0,0.,24.0
1989-08-27T08:27:22.870 ,4,1,0.,24.0,0.,24.0,0.,24.0,0.,24.0
1989-08-27T08:27:46.870 ,4,0,0.,24.0,0.,24.0,0.,24.0,0.,24.0
1989-08-27T08:28:10.870 ,3,1,0.,24.0,0.,24.0,0.,24.0,0.,24.0
1989-08-27T08:28:34.870 ,3,0,0.,24.0,0.,24.0,0.,24.0,0.,24.0
1989-08-27T08:28:58.870 ,2,1,0.,24.0,0.,24.0,0.,24.0,0.,24.0
1989-08-27T08:29:22.870 ,2,0,0.,24.0,0.,24.0,0.,24.0,0.,24.0
1989-08-27T08:29:46.870 ,1,1,0.,24.0,0.,24.0,0.,24.0,0.,24.0
1989-08-27T08:30:10.870 ,1,0,0.,24.0,0.,24.0,0.,24.0,0.,24.0
1989-08-27T08:30:34.870 ,0,1,0.,24.0,0.,24.0,0.,24.0,0.,24.0
1989-08-27T08:30:58.870 ,0,0,0.,24.0,0.,24.0,0.,24.0,0.,24.0
1989-08-27T08:31:22.870 ,0,1,0.,24.0,0.,24.0,0.,24.0,0.,24.0
1989-08-27T08:31:46.870 ,0,0,0.,24.0,0.,24.0,0.,24.0,0.,24.0
1989-08-27T08:32:10.870 ,1,1,0.,24.0,0.,24.0,0.,24.0,0.,24.0
1989-08-27T08:32:34.870 ,1,0,0.,24.0,0.,24.0,0.,24.0,0.,24.0
1989-08-27T08:32:58.870 ,2,1,0.,24.0,0.,24.0,0.,24.0,0.,24.0
1989-08-27T08:33:22.870 ,2,0,0.,24.0,0.,24.0,0.,24.0,0.,24.0
1989-08-27T08:33:46.870 ,3,1,0.,24.0,0.,24.0,0.,24.0,0.,24.0
1989-08-27T08:34:10.870 ,3,0,0.,24.0,0.,24.0,0.,24.0,0.,24.0